Flag for Dominican Republic Weather past 2 weeks in Santiago de los Caballeros, Dominican Republic

77 °F

Broken clouds.

Feels Like: 79 °F
Forecast: 69 / 81 °F
Wind: 8 mph from East

Location: Santiago

Current Time: Nov 29, 2015 at 1:51:29 PM

Latest Report: Nov 29, 2015 at 1:00 PM

Visibility: N/A

Pressure: 29.89 "Hg

Humidity: 79%

Dew point: 70 °F

Location of Santiago de los CaballerosLocation

Historic Weather in Santiago de los Caballeros — Graph


Santiago de los Caballeros temperature yesterday

Maximum temperature yesterday: 81 °F (at 12:00 PM)
Minimum temperature yesterday: 68 °F (at 2:00 AM)
Average temperature yesterday: 74 °F

Past Weeks' High & Low Weather Summary

High90 °F (Nov 23, 3:00 PM)100% (Nov 15, 6:00 AM)30.07 "Hg (Nov 15, 6:00 AM)
Low64 °F (Nov 21, 8:00 AM)43% (Nov 23, 3:00 PM)29.80 "Hg (Nov 28, 4:00 AM)
Average76 °F83%29.94 "Hg
* Reported Nov 14 1:00 PM — Nov 29 1:00 PM, Santiago de los Caballeros, Weather by CustomWeather, © 2015

Note: Actual official high and low records may vary slightly from our data, if they occured in-between our weather recording intervals... More about our weather records


Santiago de los Caballeros weather history for previous 24 hours

Time TempWeatherWind HumidityBarometerVisibility
1:00 PM
Sun, Nov 29
77 °FBroken clouds.8 mph79%29.89 "HgN/A
12:00 PM75 °FBroken clouds.12 mph78%29.92 "HgN/A
11:00 AM75 °FBroken clouds.9 mph78%29.92 "HgN/A
10:00 AM73 °FPartly sunny.N/A89%29.95 "HgN/A
9:00 AM72 °FOvercast.9 mph88%29.95 "HgN/A
8:00 AM70 °FPartly sunny.6 mph94%29.95 "HgN/A
7:00 AM70 °FBroken clouds.5 mph100%29.92 "HgN/A
6:00 AM70 °FPassing clouds.9 mph94%29.92 "HgN/A
5:00 AM70 °FPartly cloudy.5 mph94%29.89 "HgN/A
4:00 AM70 °FMostly cloudy.3 mph94%29.92 "HgN/A
3:00 AM70 °FMostly cloudy.8 mph94%29.89 "HgN/A
2:00 AM72 °FMostly cloudy.3 mph88%29.89 "HgN/A
1:00 AM72 °FMild.5 mph94%29.92 "HgN/A
12:00 AM72 °FMostly cloudy.No wind94%29.92 "HgN/A
11:00 PM
Sat, Nov 28
73 °FMostly cloudy.5 mph83%29.92 "HgN/A
10:00 PM73 °FMostly cloudy.6 mph89%29.89 "HgN/A
9:00 PM73 °FPartly cloudy.6 mph89%29.92 "HgN/A
7:00 PM75 °FPassing clouds.9 mph83%29.89 "HgN/A
6:00 PM79 °FPartly sunny.5 mph74%29.86 "HgN/A
5:00 PM79 °FPartly sunny.3 mph74%29.83 "HgN/A
4:00 PM81 °FPartly sunny.5 mph66%29.83 "HgN/A
3:00 PM81 °FPartly sunny.7 mph66%29.83 "HgN/A
2:00 PM81 °FPartly sunny.9 mph70%29.89 "HgN/A
1:00 PM81 °FPartly sunny.9 mph70%29.89 "HgN/A
Weather by CustomWeather, © 2015

See weather overviewHow to use our weather pages